Location: Godzisko
(49.9648°N, 19.4576°E)
Time: 07:22:54
(UTC+00:00)

CZ-2D R/B - Pass Details

Date: 20 April 2021
Orbit: 792 x 844 km, 98.7° (Epoch: 06 May)

Event Time Altitude Azimuth Distance (km) Brightness Sun altitude
Rises 01:27:56 0° 9° (N) 3,415 6.3 -18.5°
Reaches altitude 10° 01:30:28 10° 1° (N) 2,477 5.3 -18.2°
Maximum altitude 01:35:25 35° 297° (WNW) 1,330 3.1 -17.7°
Enters shadow 01:37:41 25° 254° (WSW) 1,640 3.2 -17.4°
